Regional Weather Roundup
Issued by NWS

Home | Current Version | Previous Version | Text Only | Print | Product List | Glossary Off
Versions: 1 2 3 4 5 6 7 8 9 10 11 12 13 14 15 16 17 18 19 20 21 22 23 24 25 26 27 28 29 30 31 32 33 34 35 36 37 38 39 40 41 42 43 44 45 46 47 48 49 50

000
ASUS43 KMKX 230021
RWRWI

WISCONSIN REGIONAL WEATHER ROUNDUP
NATIONAL WEATHER SERVICE MILWAUKEE/SULLIVAN WI
700 PM CDT TUE APR 22 2014

NOTE: "FAIR" INDICATES FEW OR NO CLOUDS BELOW 12,000 FEET WITH NO
SIGNIFICANT WEATHER AND/OR OBSTRUCTIONS TO VISIBILITY.

WIZ001-002-006>008-014>016-023>028-230100-
NORTHWEST WISCONSIN

CITY           SKY/WX    TMP DP  RH WIND       PRES   REMARKS
SUPERIOR ARPT  SUNNY     53  22  30 E5        30.05F
6HR MIN TEMP:  49; 6HR MAX TEMP:  55;

ASHLAND        CLEAR     48  25  40 NE7       30.08S
6HR MIN TEMP:  43; 6HR MAX TEMP:  50;

HAYWARD        CLEAR     50  20  30 N7        30.06S
6HR MIN TEMP:  47; 6HR MAX TEMP:  53;

SIREN          SUNNY     53  20  27 N6        30.05F
6HR MIN TEMP:  48; 6HR MAX TEMP:  54;

RICE LAKE      CLEAR     51  22  32 N9        30.06S
6HR MIN TEMP:  48; 6HR MAX TEMP:  54;

LADYSMITH      CLEAR     50  25  37 N12       30.07S
6HR MIN TEMP:  48; 6HR MAX TEMP:  53;

EAU CLAIRE     PTCLDY    54  21  27 NE10      30.04S
6HR MIN TEMP:  52; 6HR MAX TEMP:  57;

MENOMONIE      PTCLDY    54  19  25 N10       30.05S
6HR MIN TEMP:  52; 6HR MAX TEMP:  56;

NEW RICHMOND   SUNNY     53  20  27 NE8       30.05F
6HR MIN TEMP:  51; 6HR MAX TEMP:  55;

OSCEOLA        SUNNY     54  21  28 N8        30.07F
6HR MIN TEMP:  51; 6HR MAX TEMP:  57;

$$

WIZ003>005-009-010-017-018-230100-
NORTH CENTRAL WISCONSIN

CITY           SKY/WX    TMP DP  RH WIND       PRES   REMARKS
WOODRUFF       CLEAR     44  24  45 N12G18    30.06S
6HR MIN TEMP:  42; 6HR MAX TEMP:  47;

RHINELANDER    PTCLDY    42  23  46 N9        30.06S
6HR MIN TEMP:  38; 6HR MAX TEMP:  44;

EAGLE RIVER    PTCLDY    41  23  48 N9        30.05S
6HR MIN TEMP:  38; 6HR MAX TEMP:  44;

LAND O LAKES   CLEAR     41  25  53 N9        30.06S
6HR MIN TEMP:  37; 6HR MAX TEMP:  43;

PHILLIPS       CLEAR     45  24  43 N10       30.05S
6HR MIN TEMP:  43; 6HR MAX TEMP:  47;

TOMAHAWK       CLEAR     44  24  45 N9        30.05F
6HR MIN TEMP:  42; 6HR MAX TEMP:  47;

MEDFORD        CLEAR     46  24  41 N12       30.04S
6HR MIN TEMP:  46; 6HR MAX TEMP:  50;

MERRILL        CLEAR     45  26  45 N13       30.05S
6HR MIN TEMP:  44; 6HR MAX TEMP:  49;

$$

WIZ029-030-035-036-043>047-230100-
CENTRAL WISCONSIN

CITY           SKY/WX    TMP DP  RH WIND       PRES   REMARKS
WAUSAU         CLEAR     47  24  40 N12G21    30.03S
6HR MIN TEMP:  46; 6HR MAX TEMP:  51;

MOSINEE        CLEAR     46  25  42 N12G18    30.04S
MARSHFIELD     CLEAR     49  23  36 N10       30.04R
6HR MIN TEMP:  49; 6HR MAX TEMP:  54;

STEVENS POINT  CLEAR     47  23  38 N10       30.03S
6HR MIN TEMP:  46; 6HR MAX TEMP:  50;

WAUPACA        CLEAR     52  21  30 N13       30.03S
WAUTOMA        CLEAR     52  24  33 N10       30.03R
6HR MIN TEMP:  51; 6HR MAX TEMP:  56;

WISC RAPIDS    CLEAR     50  22  33 N14       30.04R
6HR MIN TEMP:  50; 6HR MAX TEMP:  56;

CAMP DOUGLAS   PTCLDY    54  25  32 N3        30.03R
$$

WIZ011>013-019>022-031-037>040-048>050-230100-
NORTHEAST WISCONSIN

CITY           SKY/WX    TMP DP  RH WIND       PRES   REMARKS
ANTIGO         CLEAR     42  27  57 N16       30.05S
6HR MIN TEMP:  41; 6HR MAX TEMP:  45;

STURGEON BAY   CLOUDY    39  27  60 N16G25    30.04R WCI  30
6HR MIN TEMP:  41; 6HR MAX TEMP:  46;

GREEN BAY      CLEAR     47  29  49 N17       30.04R
6HR MIN TEMP:  47; 6HR MAX TEMP:  50;

MANITOWOC      PTCLDY    46  28  49 N12       30.02R
6HR MIN TEMP:  46; 6HR MAX TEMP:  49;

APPLETON       PTCLDY    48  25  40 N15       30.02S
CLINTONVILLE   CLEAR     48  27  43 N12       30.03R
OSHKOSH        CLEAR     49  24  37 N16       30.02R
6HR MIN TEMP:  49; 6HR MAX TEMP:  54;

$$

WIZ032>034-041-042-053>061-230100-
SOUTHWEST WISCONSIN

CITY           SKY/WX    TMP DP  RH WIND       PRES   REMARKS
LA CROSSE      PTCLDY    56  22  26 N12       30.03R
6HR MIN TEMP:  55; 6HR MAX TEMP:  61;

SPARTA         CLEAR     55  20  26 N9        30.04S
6HR MIN TEMP:  52; 6HR MAX TEMP:  57;

VIROQUA        FAIR      52  26  36 N9        30.02S
6HR MIN TEMP:  50; 6HR MAX TEMP:  56;

BOSCOBEL       PTCLDY    58  22  24 N9        30.01S
6HR MIN TEMP:  55; 6HR MAX TEMP:  62;

PRAIRIE DU CHI PTCLDY    57  22  25 N6        30.01S
6HR MIN TEMP:  55; 6HR MAX TEMP:  59;

PLATTEVILLE    FAIR      56  26  31 NW7       30.01S
6HR MIN TEMP:  55; 6HR MAX TEMP:  59;

$$

WIZ056-057-062-063-064-067-068-230100-
SOUTH CENTRAL WISCONSIN

CITY           SKY/WX    TMP DP  RH WIND       PRES   REMARKS
BARABOO/DELLS  CLEAR     53  22  30 N10       30.02R
6HR MIN TEMP:  51; 6HR MAX TEMP:  56;

LONE ROCK      PTCLDY    57  24  28 N13       30.01R
6HR MIN TEMP:  54; 6HR MAX TEMP:  60;

WATERTOWN      PTCLDY    53  27  37 N15       29.99S
6HR MIN TEMP:  52; 6HR MAX TEMP:  56;

MADISON        PTCLDY    53  24  32 N10       30.00R
6HR MIN TEMP:  53; 6HR MAX TEMP:  59;

MIDDLETON      FAIR      55  20  26 N13       30.00S
6HR MIN TEMP:  55; 6HR MAX TEMP:  59;

MONROE         CLEAR     54  24  30 N10G16    29.99R
6HR MIN TEMP:  54; 6HR MAX TEMP:  59;

JANESVILLE     CLEAR     57  23  26 N12       29.98S
$$

WIZ051-052-058>065-066-070>072-230100-
SOUTHEAST WISCONSIN

CITY           SKY/WX    TMP DP  RH WIND       PRES   REMARKS
MILWAUKEE      PTCLDY    43  28  55 NE9       30.03R
6HR MIN TEMP:  42; 6HR MAX TEMP:  57;

WAUKESHA       PTCLDY    50  27  40 NW12      30.00R
MILWAUKEE/TIMM PTCLDY    45  27  49 NE12G17   30.01R
RACINE         PTCLDY    42  29  59 NE10      30.04R
6HR MIN TEMP:  42; 6HR MAX TEMP:  55;

BURLINGTON     CLEAR     52  25  35 NW12      29.99R
6HR MIN TEMP:  52; 6HR MAX TEMP:  57;

KENOSHA        CLEAR     43  30  60 E9        30.02R
6HR MIN TEMP:  43; 6HR MAX TEMP:  58;

FOND DU LAC    CLEAR     48  29  47 NE13      30.02R
6HR MIN TEMP:  48; 6HR MAX TEMP:  55;

SHEBOYGAN      CLEAR     47  26  44 N15G22    30.01R
6HR MIN TEMP:  47; 6HR MAX TEMP:  54;

WEST BEND      CLEAR     48  23  37 N12G17    30.00R
JUNEAU         CLEAR     51  19  28 N14G21    30.02R
6HR MIN TEMP:  50; 6HR MAX TEMP:  55;

$$

LSZ147-162-230100-
LAKE SUPERIOR

STATION/POSITION TIME  TEMP    WIND        PRES    WAVE
                       AIR SEA DIR/SP/G            HT/PER
                 (UTC) (F)     (DEG/KT/KT) (MB)    (FT/S)
DEVILS ISLAND    0000   41     120/  6/  9 1019.0S
PORT WING        2300   46      10/  2/  2 1018.6S
SAXON HARBOR     2300             CALM     1019.0
$$

LMZ867-665-643>646-230100-
LAKE MICHIGAN

STATION/POSITION TIME  TEMP    WIND        PRES    WAVE
                       AIR SEA DIR/SP/G            HT/PER
                 (UTC) (F)     (DEG/KT/KT) (MB)    (FT/S)
NORTHPORT PIER   2200   36     350/ 12/ 16 1015.9R
SISTER BAY       2209   39      10/ 17/ 20   N/A
KEWAUNEE LAKESHO 0000   45     350/ 10/ 15 1017.5R
SHEBOYGAN LAKESH 0000   44      10/ 17/ 18 1017.1R
PORT WASHINGTON  2300           50/  9/ 13 1016.6
MILWAUKEE LAKESH 0000   40      30/  8/ 11   N/A
KENOSHA   LAKESH 0000   43      80/  2/  4   N/A
$$

TC  - TEMPERATURE IN CELSIUS
VSB - VISIBILITY IN STATUTE MILES
WCI - WIND CHILL INDEX
HX  - HEAT INDEX




USA.gov is the U.S. government's official web portal to all federal, state and local government web resources and services.